Dewpoint
52 53 53 53 54 54 54 54 54 54 55 55 55 55 55 55 55 56 55 55 55 55 56 56 56 56 56 56 56 56 56 52 48 43 40 47 51 60 59 69 67 66 74 54 49 44 46 49 48 48 52 54 54 53 54 54 52 56 59 58 52 50 49 48 46 48 50 42 42 45 46 47 44 45 48 49 49 51 54 54 55 57 58 58 59 61 61 61
53 53 53 53 53 53 54 54 54 54 54 54 54 55 55 55 55 55 55 55 55 56 56 56 56 56 56 56 56 56 54 49 46 44 39 41 63 62 66 66 69 70 70 43 40 40 41 44 46 47 50 52 54 52 52 50 53 49 52 49 51 49 52 52 49 51 55 51 44 44 45 45 45 46 48 47 47 51 50 52 55 56 58 59 61 61 61 60
53 53 53 53 53 53 53 53 54 54 54 54 55 54 54 55 55 55 55 56 55 55 55 55 55 55 55 56 56 56 53 48 44 42 43 60 60 65 65 68 69 72 53 39 36 37 40 43 43 46 50 52 51 50 49 46 51 48 47 49 50 50 51 53 53 53 56 51 48 44 44 45 44 46 47 47 47 49 50 53 55 57 57 59 60 61 61 60
53 53 53 53 53 53 54 54 54 54 54 53 54 55 55 55 55 55 55 55 55 55 55 55 56 55 55 55 56 54 50 46 40 34 26 60 64 63 67 68 69 68 45 39 37 34 38 41 43 46 50 50 49 49 47 45 49 48 45 44 52 52 49 48 52 52 54 61 54 45 45 45 43 46 45 47 47 48 49 53 54 55 58 59 60 60 60 60
53 53 53 53 53 53 54 54 54 54 54 55 54 54 54 55 55 55 55 55 55 56 55 55 55 55 55 56 56 53 47 35 18 36 52 73 68 65 66 68 72 49 39 37 39 34 36 40 42 46 50 49 46 47 45 45 47 47 46 44 52 56 52 63 55 53 53 57 52 45 42 46 44 44 47 50 51 48 48 51 53 56 58 59 59 59 60 60
53 53 53 53 53 54 54 54 54 54 54 55 55 55 55 55 55 55 55 55 55 56 55 55 55 55 56 56 53 50 45 15 35 30 72 72 71 67 67 68 72 42 36 36 37 39 41 41 43 46 49 48 45 42 44 43 47 44 45 45 50 48 52 57 53 53 54 51 56 53 51 48 45 46 46 47 51 48 52 51 54 56 58 59 59 59 59 60
53 53 53 54 53 54 54 54 53 54 54 55 55 55 55 55 55 55 55 55 55 55 55 55 55 56 56 57 52 48 43 32 28 40 75 70 69 69 69 70 70 37 32 34 36 42 44 42 43 46 49 47 45 41 41 42 44 46 43 43 44 53 49 54 53 52 50 46 44 52 51 46 45 47 46 45 48 48 52 53 54 56 58 60 59 59 59 60
53 53 53 53 53 53 53 54 54 54 55 55 55 55 55 55 54 55 55 55 55 55 55 56 56 56 56 50 47 42 36 31 31 36 71 72 66 65 66 49 41 33 33 33 35 42 44 40 42 47 48 45 42 41 40 41 43 42 43 43 45 45 46 50 49 48 48 48 46 45 42 45 45 45 45 45 45 47 49 53 55 55 56 59 60 59 60 60
53 53 53 53 53 54 54 54 54 54 54 55 55 54 54 54 54 55 56 55 55 56 56 57 57 57 56 52 44 35 33 36 34 37 59 51 45 53 48 39 37 34 34 34 35 42 44 40 42 46 45 44 42 37 38 38 40 42 42 43 42 44 46 50 49 48 50 47 44 44 43 42 44 43 43 45 46 47 49 52 54 54 55 56 59 60 60 60
53 53 53 53 54 54 54 54 54 55 54 54 54 54 54 54 54 55 55 56 56 56 57 57 56 56 53 47 39 34 33 32 31 41 45 37 40 45 41 34 35 34 37 37 36 40 41 39 40 44 43 43 41 36 36 36 38 42 41 41 42 42 43 47 51 52 51 46 45 43 43 41 46 46 45 46 46 48 48 51 53 54 56 57 57 57 60 60
53 53 53 53 54 54 54 54 54 54 54 54 54 54 54 54 55 55 55 55 56 57 58 58 57 55 50 45 34 28 31 22 18 43 38 31 39 40 35 33 37 36 39 39 37 39 39 37 39 39 42 41 39 35 35 35 37 39 40 41 41 41 41 41 42 44 46 45 45 44 43 42 41 38 38 44 46 47 48 50 52 53 55 56 57 58 61 61
53 53 53 53 54 54 54 54 54 54 54 53 54 54 54 54 54 54 55 55 57 58 57 58 58 54 50 43 33 29 26 22 25 29 33 28 40 38 36 34 39 38 41 40 40 40 38 35 35 36 38 39 35 35 34 35 35 38 39 39 42 43 40 39 40 42 44 44 45 44 42 41 41 38 37 43 45 46 47 50 52 53 53 56 57 59 61 60
52 53 53 54 54 54 54 54 54 54 53 53 54 54 54 54 54 54 55 55 56 58 57 57 58 53 49 41 39 36 32 32 29 27 33 34 27 36 37 35 38 38 39 41 42 41 38 34 33 34 37 36 31 30 35 36 35 35 39 40 40 40 41 42 40 40 42 43 44 44 38 39 40 41 38 42 44 44 47 48 50 52 55 55 56 59 61 60
53 53 53 54 53 54 54 54 54 53 53 53 53 53 54 54 53 54 55 56 57 58 57 57 56 52 49 42 38 37 38 35 32 30 28 34 33 26 34 36 35 37 37 40 43 42 39 35 31 30 33 33 31 30 29 34 37 33 36 41 39 38 37 39 41 40 38 42 43 43 38 38 39 40 39 41 43 44 46 48 48 52 54 55 56 59 60 60
53 53 53 54 54 54 54 54 53 53 53 54 52 52 53 52 53 54 56 57 59 60 57 57 55 50 46 42 43 42 61 46 30 30 27 27 35 33 34 37 35 36 37 37 40 42 39 36 31 28 29 31 31 30 29 28 32 36 35 37 39 36 35 38 39 38 37 39 42 40 38 37 36 39 38 41 43 44 47 49 50 52 53 53 55 57 59 60
53 53 53 53 54 54 53 53 53 53 53 52 51 51 53 53 54 55 56 57 59 57 56 53 52 51 44 40 38 54 43 37 28 27 28 25 31 34 38 37 34 35 37 38 40 40 38 35 31 29 29 29 28 29 31 31 28 32 34 35 35 34 34 34 34 36 37 37 39 39 37 36 35 36 37 42 44 44 46 51 51 49 53 52 53 57 59 59
53 53 53 53 54 53 53 52 53 53 52 51 51 50 52 54 54 56 58 59 57 55 53 51 49 50 38 34 34 30 32 35 30 24 24 24 23 34 36 34 31 35 38 39 39 39 38 34 33 32 31 28 27 28 31 32 31 29 30 32 32 33 34 32 31 30 34 35 36 37 36 36 35 37 37 41 44 44 46 46 48 49 50 52 52 54 56 59
53 53 53 53 54 53 53 52 53 52 51 50 51 49 48 55 55 53 56 58 54 53 53 51 50 48 44 43 34 27 30 32 32 29 23 21 24 37 37 32 31 35 37 36 38 36 36 33 34 31 29 28 27 26 29 30 30 29 28 29 31 33 31 27 28 29 31 34 34 36 35 35 36 39 39 41 44 44 43 45 47 49 50 52 53 57 59 60
53 53 53 53 53 53 53 53 52 51 50 50 50 51 53 56 51 48 50 54 53 51 47 48 46 26 21 31 36 31 28 27 28 27 21 19 32 40 41 39 38 39 36 34 33 33 36 35 34 33 29 27 27 28 28 30 29 30 29 27 28 28 29 27 26 28 30 31 33 34 33 33 35 36 40 40 42 44 44 47 50 50 49 52 54 56 59 60
53 53 53 53 53 52 53 52 52 51 50 48 43 42 31 20 20 45 42 26 24 25 31 30 39 39 38 38 34 32 30 26 24 23 20 22 33 38 40 39 38 37 35 31 31 33 38 35 32 31 30 28 28 31 32 30 27 28 27 24 24 25 24 25 25 28 31 31 32 32 33 33 34 36 38 41 42 43 47 47 46 52 52 52 55 56 59 60
53 53 53 52 52 53 52 52 51 50 50 47 41 30 17 18 18 16 23 27 28 28 25 19 16 18 27 33 33 30 26 25 26 23 18 23 29 34 35 35 35 33 32 32 33 38 37 35 32 30 30 29 30 31 33 32 26 24 23 20 19 21 21 22 25 27 29 28 31 33 32 34 35 36 36 42 44 41 44 53 48 50 50 57 57 57 58 60
53 53 52 52 52 52 52 51 51 50 49 46 42 22 18 18 22 24 27 24 23 24 24 24 24 23 22 21 21 21 21 23 25 23 17 21 25 27 33 35 35 32 32 34 35 35 33 32 33 31 31 30 30 30 29 30 27 24 22 19 15 17 21 22 23 26 28 29 29 31 32 32 34 35 36 37 39 42 41 46 56 54 53 56 57 57 58 59
53 53 53 52 52 52 51 51 49 49 48 44 32 19 16 18 23 27 28 28 28 29 28 28 27 24 19 19 19 19 19 22 23 24 16 18 23 24 32 35 35 34 35 36 31 29 29 28 32 32 30 30 28 28 27 26 28 28 23 19 15 15 17 20 22 24 24 27 27 31 30 32 33 35 34 36 35 39 41 41 56 53 53 56 57 57 55 58
53 53 52 52 52 51 52 49 49 47 37 31 26 18 16 19 22 26 29 27 23 24 23 20 22 26 22 14 14 16 18 22 26 24 22 17 20 22 28 34 34 33 32 33 28 23 25 25 27 31 29 28 27 26 26 25 25 28 27 19 14 14 15 17 19 22 26 27 27 28 30 30 31 31 31 34 35 35 36 39 45 57 55 56 58 57 57 58
53 53 53 52 51 51 49 49 42 25 34 32 21 18 17 22 27 30 28 30 30 29 32 30 25 19 24 21 12 12 16 22 27 27 25 17 18 20 19 31 31 30 30 29 26 23 21 23 22 24 25 23 24 24 24 26 25 25 26 24 16 14 15 16 16 18 23 26 28 28 28 30 33 31 30 31 31 33 37 40 40 59 54 56 57 57 57 57
53 53 52 52 51 50 49 42 25 35 36 23 21 17 19 20 26 31 29 31 26 26 19 25 29 21 21 19 12 10 14 18 25 28 26 21 21 19 19 22 28 27 28 29 26 23 20 21 22 22 23 23 22 23 24 26 27 26 24 23 20 17 15 14 13 16 19 23 26 27 27 28 31 30 31 32 32 34 37 39 38 43 58 55 56 57 55 55
52 52 52 51 51 49 38 24 34 38 30 22 19 19 20 21 36 29 29 28 27 23 17 22 19 18 18 17 11 11 9 11 21 26 27 25 17 19 17 17 25 26 26 28 27 23 22 19 21 22 24 23 22 22 23 25 25 24 22 19 17 17 17 14 13 13 18 21 23 25 26 27 28 28 30 30 32 34 34 35 39 38 44 52 55 52 56 55
52 52 51 50 50 49 44 42 40 36 24 21 21 23 23 30 31 26 30 27 15 18 20 19 19 21 20 15 12 9 9 16 15 20 26 25 22 16 16 15 19 23 23 24 22 24 23 19 18 20 22 22 21 22 25 26 24 21 20 18 16 14 16 14 12 13 14 15 19 20 25 28 28 29 32 31 30 31 34 34 37 41 42 43 47 53 56 55
51 51 50 50 49 49 49 44 39 35 24 24 24 24 24 29 24 25 23 16 18 8 18 19 24 22 22 17 12 10 8 16 14 17 22 26 24 18 14 14 14 19 22 22 21 21 22 21 18 18 19 19 21 20 23 24 20 19 18 14 13 12 11 11 11 12 14 18 19 20 18 23 22 26 27 28 28 30 31 33 32 39 41 43 41 48 50 55
51 51 50 50 47 40 36 35 38 28 25 27 26 27 24 26 23 22 24 21 15 -4 22 18 17 19 21 17 15 13 10 9 14 18 20 23 24 23 18 17 13 13 18 20 20 20 20 26 24 18 18 19 20 19 20 21 19 18 15 13 9 6 8 11 9 14 16 15 18 14 11 12 18 24 25 28 27 30 28 32 33 39 40 41 43 52 49 52
51 49 49 49 44 37 39 36 25 25 28 29 25 25 26 25 19 13 15 18 15 18 26 24 24 25 22 19 17 17 16 14 13 15 20 22 23 24 23 18 15 12 13 17 18 19 20 19 20 19 19 19 20 19 17 18 17 14 13 13 9 11 10 14 12 14 11 10 17 12 13 16 18 21 23 26 28 28 28 31 33 32 38 42 45 41 53 54
49 49 49 48 46 46 39 36 28 24 28 27 25 24 20 10 14 14 8 12 9 24 21 22 22 22 23 23 23 18 19 18 16 14 19 20 23 25 24 20 16 14 13 15 18 20 18 18 19 20 25 18 20 19 16 14 14 15 15 15 10 11 17 13 16 7 5 6 10 7 10 12 16 22 21 22 23 26 31 30 30 31 34 41 41 43 55 53
49 48 48 48 48 44 42 34 24 29 27 23 24 23 20 17 16 10 13 14 10 21 19 21 19 21 22 22 22 23 20 18 17 15 18 21 21 24 25 22 18 15 14 14 15 17 17 18 18 19 20 22 20 19 17 13 15 16 15 14 13 11 14 18 17 19 12 7 4 5 8 10 15 18 22 19 21 25 28 32 32 30 34 42 43 46 47 53
48 48 47 47 44 39 38 30 26 25 22 26 25 19 18 13 9 19 6 11 17 18 17 16 17 19 21 21 21 21 20 20 17 15 17 21 21 23 24 23 20 17 16 15 14 15 16 16 16 17 18 20 19 19 18 15 15 16 13 10 13 19 17 18 17 15 14 15 8 5 9 15 10 18 15 17 18 23 27 27 34 37 38 46 42 46 47 55
48 48 49 47 47 45 25 20 27 24 24 23 17 13 12 13 10 9 12 16 16 16 14 15 15 17 19 21 21 20 20 20 20 17 18 20 21 21 23 22 22 19 17 15 16 17 16 16 17 18 18 21 19 19 20 17 16 15 12 10 11 14 20 16 16 13 13 11 10 13 10 13 15 22 18 17 13 17 21 26 30 39 38 42 45 48 44 47
47 44 42 42 30 25 19 19 22 24 26 23 19 14 10 11 7 14 15 16 15 15 14 15 14 16 17 18 19 16 17 18 18 19 18 19 20 21 21 22 22 21 19 16 18 16 18 16 16 16 17 18 18 19 20 19 16 15 11 9 10 12 12 19 22 13 12 13 14 17 14 11 10 8 11 13 11 15 18 18 22 29 36 44 43 44 43 40
44 44 41 36 34 23 22 21 24 29 29 23 22 19 16 17 17 15 18 13 13 14 15 12 14 14 14 14 15 15 17 19 21 16 18 19 18 19 21 21 23 22 22 20 18 19 18 17 16 16 15 17 19 19 20 19 17 14 11 10 10 12 12 19 15 22 15 10 13 8 9 13 11 12 15 14 14 12 15 17 17 29 36 38 41 46 46 42
44 44 44 41 34 25 22 27 29 31 26 22 16 22 18 15 15 14 14 13 12 15 14 11 11 12 12 13 14 15 16 16 19 23 14 16 17 19 18 21 22 23 22 23 21 20 19 18 17 16 16 16 18 20 20 20 18 15 13 13 9 13 15 21 21 17 17 17 16 15 12 12 14 18 13 13 14 16 22 24 21 21 29 35 37 43 47 44
46 43 34 28 25 22 23 29 29 29 24 17 14 18 9 12 10 12 14 12 14 17 15 14 14 12 11 10 15 17 16 14 16 19 21 17 17 26 24 26 24 22 23 22 21 21 20 17 18 16 15 16 18 21 21 19 18 17 16 14 13 14 16 20 20 23 25 22 20 19 17 16 17 16 15 16 20 23 19 22 19 20 26 30 38 45 46 45
36 34 26 26 24 23 29 27 25 22 17 9 16 16 14 10 13 14 10 14 15 17 17 17 17 16 14 14 16 16 20 25 24 22 21 22 22 24 24 25 26 27 28 29 24 21 21 25 18 16 15 14 16 20 19 20 17 15 14 14 14 14 15 16 15 16 19 24 22 21 14 18 21 15 16 20 22 26 23 27 31 24 26 30 39 43 45 45
41 37 29 26 25 26 24 24 22 14 16 13 14 11 11 12 15 13 11 15 16 17 18 19 17 16 18 18 18 23 25 25 23 22 23 21 23 24 24 25 25 26 27 27 28 24 23 21 19 19 16 15 15 18 18 19 17 14 13 14 15 14 14 14 15 12 12 17 21 18 18 29 13 11 18 20 23 22 24 26 28 24 22 35 47 40 46 46
35 24 24 27 26 24 23 22 14 16 14 12 10 13 13 22 13 11 13 14 15 16 21 19 18 17 17 17 19 23 24 23 24 23 23 23 28 26 26 26 25 26 25 27 25 26 27 24 21 21 20 16 15 16 17 18 18 14 12 12 15 15 14 15 17 17 12 11 12 18 17 29 26 22 25 19 22 20 23 21 24 23 25 28 37 44 46 48
29 29 29 26 25 23 21 20 20 19 13 13 16 14 12 13 14 14 15 17 15 19 17 19 20 18 19 21 23 22 23 24 23 21 21 25 28 29 26 25 25 25 26 26 30 28 42 25 24 23 29 31 16 15 17 18 17 14 11 11 12 12 12 12 14 19 18 15 12 12 21 21 23 49 32 20 36 21 27 21 30 22 23 29 35 34 50 49
36 37 35 24 26 24 22 17 17 17 14 17 20 20 16 15 15 15 17 16 15 16 17 20 21 23 24 24 22 21 23 24 25 26 29 33 30 32 31 28 25 24 25 26 31 33 31 31 29 27 29 30 20 15 15 16 16 15 12 11 12 14 14 12 13 23 20 15 11 11 13 20 25 35 35 25 19 17 20 19 22 24 31 27 33 41 50 52
39 34 27 24 27 23 19 16 15 18 19 20 21 21 18 17 17 19 19 18 18 17 19 24 22 23 23 23 23 24 22 23 24 26 35 34 33 33 30 29 31 25 25 29 42 31 33 33 32 27 26 26 20 16 19 18 17 16 14 11 12 11 15 15 14 25 20 33 30 16 15 25 26 39 28 22 20 36 25 20 19 24 34 26 32 46 53 52
37 30 27 26 28 25 23 20 16 15 17 20 20 21 20 18 18 21 19 21 19 22 22 24 21 25 24 23 24 21 23 24 24 26 34 34 33 32 32 32 30 29 39 48 44 32 31 32 35 34 31 26 28 35 22 22 18 16 13 11 9 10 10 16 20 22 18 29 25 31 27 29 30 25 25 19 21 21 21 27 23 41 47 50 58 58 57 56
38 31 29 29 30 27 25 22 18 18 17 17 21 23 24 21 20 20 24 19 25 22 21 25 26 26 26 24 23 25 25 24 27 32 33 33 32 31 32 30 29 36 47 42 36 28 34 32 32 37 34 30 36 38 29 29 21 17 14 10 9 10 12 14 16 16 41 26 24 34 49 29 28 27 26 29 26 36 25 30 32 42 43 42 50 58 58 50
33 34 35 34 31 30 29 27 25 24 21 16 20 25 23 20 23 20 20 22 24 30 25 27 28 26 26 25 25 24 27 29 30 30 32 32 31 30 31 31 29 38 36 27 25 27 29 30 31 30 29 28 28 28 28 29 26 23 15 12 10 11 12 14 20 17 31 25 26 41 48 35 29 21 20 26 36 38 20 23 31 35 35 47 55 47 43 44
37 37 36 38 35 34 34 32 29 25 20 18 23 23 21 24 23 21 20 19 21 28 29 26 24 24 26 27 27 27 31 27 27 31 32 32 30 30 31 30 30 30 27 26 26 33 33 30 32 31 28 26 26 26 26 28 29 27 26 14 11 10 11 12 13 15 18 38 34 30 40 29 23 19 19 21 29 28 34 38 40 40 34 54 41 44 37 42
38 38 39 41 38 36 35 32 30 27 24 26 21 21 28 27 23 21 21 21 22 26 33 25 23 25 26 26 29 27 29 31 30 29 30 30 28 30 31 30 28 28 27 26 27 32 30 31 34 31 31 29 26 28 28 28 28 26 25 18 11 10 11 11 11 14 21 22 20 22 38 37 28 35 30 28 38 29 31 31 33 41 34 31 32 27 33 39
46 44 45 39 35 35 36 34 33 31 25 23 20 23 23 21 22 23 22 21 25 26 26 25 26 26 26 25 26 26 29 31 31 29 29 28 27 27 29 30 29 27 26 26 26 28 29 30 30 32 30 29 29 28 26 27 27 26 26 26 23 13 14 13 15 14 19 27 27 22 33 30 33 37 36 36 36 38 36 38 36 38 29 39 34 30 37 50
47 48 45 44 35 38 35 35 33 32 28 24 24 23 24 22 22 23 23 25 25 30 30 30 26 25 24 26 28 27 27 29 28 27 26 25 24 24 25 29 28 27 26 25 26 26 28 30 29 28 27 29 29 27 26 26 27 26 26 25 19 24 24 13 16 17 17 18 23 24 27 33 39 41 32 33 29 34 34 32 35 39 47 37 40 38 36 36